Time,TemperatureF,DewpointF,PressureIn,WindDirection,WindDirectionDegrees,WindSpeedMPH,WindSpeedGustMPH,Humidity,HourlyPrecipIn,Conditions,Clouds,dailyrainin,SoftwareType,DateUTC
2013-08-27 00:18:00,73.0,72.0,30.01,North,0,0.0,0.0,96,0.00,,,0.01,,2013-08-27 04:18:00,
2013-08-27 00:47:00,73.0,72.0,30.00,North,0,0.0,0.0,97,0.00,,,0.01,,2013-08-27 04:47:00,
2013-08-27 00:54:00,73.0,72.0,30.00,North,0,0.0,0.0,97,0.00,,,0.01,,2013-08-27 04:54:00,
2013-08-27 01:13:00,72.0,71.0,30.00,North,0,0.0,0.0,97,0.00,,,0.01,,2013-08-27 05:13:00,
2013-08-27 01:23:00,72.0,71.0,30.00,North,0,0.0,0.0,97,0.00,,,0.01,,2013-08-27 05:23:00,
2013-08-27 01:34:00,72.0,71.0,30.00,North,0,0.0,0.0,97,0.00,,,0.01,,2013-08-27 05:34:00,
2013-08-27 01:43:00,72.0,71.0,30.00,North,0,0.0,0.0,97,0.00,,,0.01,,2013-08-27 05:43:00,
2013-08-27 01:52:00,73.0,72.0,30.00,South,174,0.0,1.0,96,0.00,,,0.01,,2013-08-27 05:52:00,
2013-08-27 02:02:00,73.0,72.0,30.00,South,174,0.0,1.0,96,0.00,,,0.01,,2013-08-27 06:02:00,
2013-08-27 02:12:00,73.0,72.0,30.00,South,174,0.0,1.0,96,0.00,,,0.01,,2013-08-27 06:12:00,
2013-08-27 02:22:00,73.0,72.0,30.00,South,174,0.0,1.0,96,0.00,,,0.01,,2013-08-27 06:22:00,
2013-08-27 02:32:00,73.0,72.0,30.00,South,174,0.0,1.0,96,0.00,,,0.01,,2013-08-27 06:32:00,
2013-08-27 03:12:00,72.0,71.0,29.98,North,0,0.0,0.0,96,0.00,,,0.01,,2013-08-27 07:12:00,
2013-08-27 03:22:00,72.0,71.0,29.98,North,0,0.0,0.0,96,0.00,,,0.01,,2013-08-27 07:22:00,
2013-08-27 03:32:00,72.0,71.0,29.98,North,0,0.0,0.0,96,0.00,,,0.01,,2013-08-27 07:32:00,
2013-08-27 03:42:00,72.0,71.0,29.98,North,0,0.0,0.0,96,0.00,,,0.01,,2013-08-27 07:42:00,
2013-08-27 04:12:00,73.0,71.0,29.96,SSW,194,0.0,1.0,94,0.00,,,0.01,,2013-08-27 08:12:00,
2013-08-27 04:22:00,73.0,71.0,29.96,SSW,213,0.0,1.0,94,0.00,,,0.01,,2013-08-27 08:22:00,
2013-08-27 04:42:00,73.0,71.0,29.96,South,181,0.0,1.0,93,0.00,,,0.01,,2013-08-27 08:42:00,
2013-08-27 04:43:00,73.0,71.0,29.95,SW,233,0.0,1.0,93,0.00,,,0.01,,2013-08-27 08:43:00,
2013-08-27 04:52:00,73.0,71.0,29.95,South,171,0.0,1.0,93,0.00,,,0.01,,2013-08-27 08:52:00,
2013-08-27 05:12:00,73.0,71.0,29.95,SW,233,0.0,1.0,93,0.00,,,0.01,,2013-08-27 09:12:00,
2013-08-27 05:22:00,73.0,71.0,29.95,SW,233,0.0,1.0,93,0.00,,,0.01,,2013-08-27 09:22:00,
2013-08-27 05:35:00,73.0,71.0,29.95,SW,233,0.0,1.0,93,0.00,,,0.01,,2013-08-27 09:35:00,
2013-08-27 05:54:00,72.0,70.0,29.95,North,0,0.0,0.0,94,0.00,,,0.01,,2013-08-27 09:54:00,
2013-08-27 06:14:00,72.0,70.0,29.95,South,171,0.0,1.0,94,0.00,,,0.01,,2013-08-27 10:14:00,
2013-08-27 06:25:00,72.0,70.0,29.95,South,171,0.0,1.0,94,0.00,,,0.01,,2013-08-27 10:25:00,
2013-08-27 06:43:00,73.0,71.0,29.96,North,0,0.0,0.0,94,0.00,,,0.01,,2013-08-27 10:43:00,
2013-08-27 06:53:00,73.0,71.0,29.97,WNW,285,0.0,2.0,94,0.00,,,0.01,,2013-08-27 10:53:00,
2013-08-27 07:12:00,74.0,71.0,29.99,WNW,298,9.0,18.0,90,0.00,,,0.01,,2013-08-27 11:12:00,
2013-08-27 07:22:00,73.0,71.0,29.99,NW,307,8.0,17.0,92,0.01,,,0.02,,2013-08-27 11:22:00,
2013-08-27 07:42:00,73.0,71.0,30.00,NNW,339,7.0,19.0,94,0.02,,,0.03,,2013-08-27 11:42:00,
2013-08-27 07:52:00,72.0,70.0,30.00,NNW,344,8.0,18.0,94,0.04,,,0.05,,2013-08-27 11:52:00,
2013-08-27 08:02:00,72.0,70.0,30.00,NNW,344,8.0,18.0,94,0.04,,,0.05,,2013-08-27 12:02:00,
2013-08-27 08:12:00,72.0,70.0,30.00,NNW,344,8.0,18.0,94,0.04,,,0.05,,2013-08-27 12:12:00,
2013-08-27 08:22:00,72.0,71.0,30.00,North,354,7.0,13.0,96,0.09,,,0.11,,2013-08-27 12:22:00,
2013-08-27 08:42:00,71.0,69.0,30.01,NNW,337,7.0,14.0,94,0.10,,,0.14,,2013-08-27 12:42:00,
2013-08-27 08:52:00,70.0,68.0,30.00,NNW,347,4.0,9.0,94,0.12,,,0.16,,2013-08-27 12:52:00,
2013-08-27 09:12:00,70.0,68.0,29.99,West,264,0.0,1.0,95,0.09,,,0.17,,2013-08-27 13:12:00,
2013-08-27 09:22:00,70.0,69.0,29.98,North,0,0.0,0.0,96,0.07,,,0.18,,2013-08-27 13:22:00,
2013-08-27 09:42:00,70.0,69.0,29.97,SE,135,0.0,1.0,96,0.04,,,0.18,,2013-08-27 13:42:00,
2013-08-27 09:52:00,71.0,70.0,29.96,SE,146,0.0,2.0,97,0.01,,,0.18,,2013-08-27 13:52:00,
2013-08-27 10:11:00,71.0,70.0,29.96,SE,139,0.0,2.0,96,0.01,,,0.18,,2013-08-27 14:11:00,
2013-08-27 10:22:00,71.0,70.0,29.96,SE,139,0.0,2.0,96,0.01,,,0.18,,2013-08-27 14:22:00,
2013-08-27 10:42:00,72.0,70.0,29.94,SSE,163,0.0,2.0,95,0.00,,,0.18,,2013-08-27 14:42:00,
2013-08-27 10:53:00,72.0,70.0,29.94,SSE,163,0.0,2.0,95,0.00,,,0.18,,2013-08-27 14:53:00,
2013-08-27 11:11:00,72.0,70.0,29.96,South,191,1.0,3.0,95,0.00,,,0.18,,2013-08-27 15:11:00,
2013-08-27 11:22:00,73.0,72.0,29.97,West,268,1.0,3.0,96,0.00,,,0.18,,2013-08-27 15:22:00,
2013-08-27 11:45:00,73.0,72.0,29.97,West,265,1.0,4.0,96,0.00,,,0.18,,2013-08-27 15:45:00,
2013-08-27 11:58:00,73.0,71.0,29.97,WSW,241,0.0,2.0,95,0.00,,,0.18,,2013-08-27 15:58:00,
2013-08-27 12:17:00,73.0,71.0,29.98,SSE,162,0.0,3.0,94,0.00,,,0.18,,2013-08-27 16:17:00,
2013-08-27 12:28:00,74.0,72.0,29.97,SSE,151,1.0,4.0,93,0.00,,,0.18,,2013-08-27 16:28:00,
2013-08-27 12:35:00,74.0,72.0,29.97,SSE,151,1.0,4.0,93,0.00,,,0.18,,2013-08-27 16:35:00,
2013-08-27 12:46:00,74.0,72.0,29.97,SSE,151,1.0,4.0,93,0.00,,,0.18,,2013-08-27 16:46:00,
2013-08-27 12:55:00,74.0,72.0,29.97,SSE,151,1.0,4.0,93,0.00,,,0.18,,2013-08-27 16:55:00,
2013-08-27 13:13:00,75.0,72.0,29.97,SSE,151,1.0,4.0,90,0.00,,,0.18,,2013-08-27 17:13:00,
2013-08-27 13:23:00,76.0,73.0,29.96,SW,221,2.0,8.0,89,0.00,,,0.18,,2013-08-27 17:23:00,
2013-08-27 13:43:00,76.0,72.0,29.96,SSE,167,3.0,7.0,87,0.00,,,0.18,,2013-08-27 17:43:00,
2013-08-27 13:52:00,78.0,72.0,29.95,SSE,167,4.0,9.0,83,0.00,,,0.18,,2013-08-27 17:52:00,
2013-08-27 14:12:00,79.0,73.0,29.95,South,170,2.0,7.0,82,0.00,,,0.18,,2013-08-27 18:12:00,
2013-08-27 14:22:00,79.0,73.0,29.95,SSE,163,2.0,6.0,81,0.00,,,0.18,,2013-08-27 18:22:00,
2013-08-27 14:42:00,80.0,73.0,29.95,SSE,149,1.0,3.0,80,0.00,,,0.18,,2013-08-27 18:42:00,
2013-08-27 14:52:00,80.0,73.0,29.95,SE,146,2.0,5.0,80,0.00,,,0.18,,2013-08-27 18:52:00,
2013-08-27 15:12:00,80.0,74.0,29.95,SW,214,1.0,3.0,82,0.00,,,0.18,,2013-08-27 19:12:00,
2013-08-27 15:22:00,80.0,74.0,29.94,SW,219,1.0,3.0,83,0.00,,,0.18,,2013-08-27 19:22:00,
2013-08-27 15:42:00,80.0,74.0,29.93,SE,145,1.0,3.0,82,0.00,,,0.18,,2013-08-27 19:42:00,
2013-08-27 15:52:00,80.0,74.0,29.93,South,175,1.0,5.0,82,0.00,,,0.18,,2013-08-27 19:52:00,
2013-08-27 16:12:00,81.0,75.0,29.91,SSE,157,2.0,5.0,82,0.00,,,0.18,,2013-08-27 20:12:00,